1501495200.52,23631,22.94,74762.5,11.13,10.57,10.57,0,*4A
1501495201.79,23632,22.94,74762.0,11.15,10.61,10.61,0,*4F
1501495203.06,23633,22.94,74760.5,11.15,10.61,10.65,0,*4A
1501495204.28,23634,22.94,74764.0,11.13,10.69,10.61,0,*47
1501495205.51,23635,22.94,74760.8,11.13,10.69,10.61,0,*46
1501495206.74,23636,22.94,74760.5,11.13,10.69,10.61,0,*45
1501495207.99,23637,22.94,74758.3,11.13,10.79,10.83,0,*49
1501495209.24,23638,22.94,74760.5,11.13,10.79,10.79,0,*43
1501495210.46,23639,22.94,74758.0,11.13,10.71,10.69,0,*4B
1501495211.71,23640,22.94,74760.8,11.15,10.83,10.85,0,*4C
1501495212.96,23641,22.94,74758.5,11.13,10.79,10.71,0,*45
1501495214.23,23642,22.94,74758.8,11.15,10.65,10.61,0,*4C
1501495215.5,23643,22.94,74758.8,11.15,10.65,10.65,0,*49
1501495216.77,23644,22.94,74758.5,11.15,10.61,10.61,0,*4E
1501495218.04,23645,22.94,74760.0,11.15,10.61,10.61,0,*4F
1501495219.24,23646,22.94,74762.8,11.13,10.47,10.51,0,*4D
1501495220.44,23647,22.94,74760.8,11.13,10.51,10.47,0,*4C
1501495221.64,23648,22.94,74760.0,11.13,10.47,10.51,0,*43
1501495222.83,23649,22.94,74760.0,11.13,10.47,10.51,0,*42
1501495224.08,23650,22.94,74760.0,11.13,10.61,10.61,0,*4D
1501495225.32,23651,22.94,74760.8,11.13,10.61,10.61,0,*4C
1501495226.52,23652,22.94,74762.8,11.13,10.69,10.69,0,*4F
1501495227.77,23653,22.94,74762.0,11.13,10.61,10.61,0,*4E
1501495228.96,23654,22.94,74758.0,11.13,10.51,10.51,0,*49
1501495230.16,23655,22.94,74754.0,11.13,10.51,10.51,0,*48
1501495231.36,23656,22.94,74758.3,11.13,10.47,10.47,0,*4B
1501495232.57,23657,22.94,74756.3,11.13,10.37,10.43,0,*49
1501495233.8,23658,22.94,74754.0,11.11,10.43,10.47,0,*43
1501495235.04,23659,22.94,74756.5,11.11,10.37,10.43,0,*45
1501495236.26,23660,22.94,74758.8,11.11,10.43,10.43,0,*4C
1501495237.52,23661,22.94,74762.3,11.07,10.41,10.41,0,*4A
1501495238.75,23662,22.94,74760.5,11.11,10.47,10.43,0,*4A
1501495239.97,23663,22.94,74756.8,11.11,10.47,10.51,0,*48
1501495241.21,23664,22.94,74758.0,11.11,10.57,10.51,0,*4E
1501495242.44,23665,22.94,74762.3,11.07,10.55,10.55,0,*4E
1501495243.65,23666,22.94,74758.3,11.07,10.43,10.43,0,*4D
1501495244.92,23667,22.94,74760.0,11.07,10.41,10.41,0,*4C
1501495246.18,23668,22.94,74756.5,11.07,10.33,10.41,0,*46
1501495247.46,23669,22.94,74758.5,11.07,10.31,10.31,0,*42
1501495248.72,23670,22.94,74756.8,11.07,10.31,10.33,0,*48
1501495249.94,23671,22.94,74758.3,11.07,10.43,10.43,0,*4B
1501495251.16,23672,22.94,74758.3,11.07,10.43,10.47,0,*4C
1501495252.39,23673,22.94,74756.8,11.07,10.55,10.47,0,*4A
1501495253.63,23674,22.94,74756.3,11.07,10.57,10.55,0,*4C
1501495254.83,23675,22.94,74758.5,11.05,10.55,10.55,0,*4D
1501495256.03,23676,22.94,74758.8,11.05,10.51,10.51,0,*4E
1501495257.27,23677,22.94,74756.3,11.05,10.41,10.41,0,*4F
1501495258.54,23678,22.94,74758.8,11.03,10.41,10.41,0,*46
1501495259.78,23679,22.94,74754.5,11.05,10.41,10.41,0,*41
1501495261.03,23680,22.94,74758.8,11.05,10.37,10.37,0,*47
1501495262.3,23681,22.94,74758.5,11.03,10.27,10.27,0,*40
1501495263.56,23682,22.94,74756.8,11.05,10.19,10.19,0,*45
1501495264.81,23683,22.94,74758.0,11.05,10.19,10.27,0,*49
1501495266.06,23684,22.94,74756.3,11.05,10.27,10.27,0,*43
1501495267.35,23685,22.94,74758.0,11.03,10.31,10.31,0,*44
1501495268.59,23686,22.94,74756.5,11.05,10.37,10.37,0,*41
1501495269.84,23687,22.94,74760.5,11.05,10.37,10.37,0,*40
1501495271.11,23688,22.94,74756.3,11.03,10.37,10.37,0,*49
1501495272.35,23689,22.94,74756.0,11.05,10.37,10.37,0,*4E
1501495273.62,23690,22.94,74756.3,11.03,10.37,10.37,0,*40
1501495274.88,23691,22.94,74752.5,11.03,10.41,10.41,0,*41
1501495276.15,23692,22.94,74752.5,11.03,10.41,10.41,0,*42
1501495277.44,23693,22.94,74752.8,11.03,10.31,10.31,0,*43
1501495278.72,23694,22.94,74752.5,11.03,10.31,10.31,0,*44
1501495279.99,23695,22.94,74752.8,11.03,10.37,10.37,0,*45
1501495281.26,23696,22.94,74754.0,11.03,10.37,10.41,0,*47
1501495282.45,23697,22.94,74754.0,11.01,10.51,10.51,0,*45
1501495283.67,23698,22.94,74754.8,11.01,10.37,10.47,0,*4D
1501495284.91,23699,22.94,74756.5,11.01,10.37,10.37,0,*4B
1501495286.17,23700,22.94,74756.0,10.99,10.37,10.27,0,*4B
1501495287.44,23701,22.94,74758.8,11.03,10.37,10.37,0,*49
1501495288.71,23702,22.94,74760.0,11.03,10.31,10.37,0,*4C
1501495289.96,23703,22.94,74760.0,11.01,10.23,10.27,0,*4D
1501495291.18,23704,22.94,74760.5,10.99,10.33,10.33,0,*4E
1501495292.4,23705,22.94,74764.0,11.01,10.37,10.33,0,*4B
1501495293.62,23706,22.94,74758.8,10.99,10.33,10.33,0,*4C
1501495294.84,23707,22.94,74760.0,10.99,10.33,10.33,0,*4D
1501495296.06,23708,22.94,74762.3,11.01,10.37,10.33,0,*46
1501495297.3,23709,22.94,74756.3,10.99,10.33,10.37,0,*47
1501495298.53,23710,22.94,74756.0,11.01,10.41,10.37,0,*4A
1501495299.77,23711,22.94,74762.3,11.01,10.41,10.41,0,*4A
1501495300.96,23712,22.94,74756.5,11.01,10.51,10.47,0,*4E
1501495302.19,23713,22.94,74760.8,11.01,10.37,10.47,0,*4F
1501495303.42,23714,22.94,74758.3,11.01,10.37,10.37,0,*4F
1501495304.66,23715,22.94,74760.0,11.01,10.41,10.41,0,*4E
1501495305.9,23716,22.94,74764.3,11.01,10.37,10.37,0,*4D
1501495307.11,23717,22.94,74764.5,10.99,10.47,10.47,0,*4C
1501495308.31,23718,22.94,74760.8,11.01,10.47,10.47,0,*43
1501495309.52,23719,22.94,74760.3,10.99,10.51,10.47,0,*45
1501495310.71,23720,22.94,74760.3,11.01,10.47,10.51,0,*4F
1501495311.91,23721,22.94,74764.8,11.01,10.47,10.51,0,*4E
1501495313.11,23722,22.94,74766.5,11.01,10.47,10.47,0,*4A
1501495314.34,23723,22.94,74764.8,11.01,10.37,10.37,0,*4B
1501495315.58,23724,22.94,74762.3,11.01,10.37,10.37,0,*4C
1501495316.83,23725,22.94,74764.8,10.99,10.37,10.37,0,*4D
1501495318.07,23726,22.94,74762.8,11.01,10.41,10.37,0,*4F
1501495319.31,23727,22.94,74760.5,11.01,10.41,10.41,0,*4F
1501495320.54,23728,22.94,74760.8,11.01,10.41,10.41,0,*40
1501495321.74,23729,22.94,74764.3,11.01,10.51,10.47,0,*46
1501495322.93,23730,22.94,74766.5,11.01,10.47,10.51,0,*4E
1501495324.13,23731,22.94,74760.5,11.01,10.47,10.51,0,*4F
1501495325.37,23732,22.94,74762.5,11.01,10.61,10.57,0,*4E
1501495326.62,23733,22.94,74760.5,10.99,10.57,10.57,0,*4A
1501495327.83,23734,22.94,74764.0,11.01,10.51,10.57,0,*4B
1501495329.04,23735,22.94,74760.5,10.99,10.51,10.51,0,*4C
1501495330.29,23736,22.94,74760.5,10.99,10.37,10.37,0,*4F
1501495331.54,23737,22.94,74762.5,10.99,10.41,10.41,0,*4E
1501495332.75,23738,22.94,74762.5,10.99,10.51,10.51,0,*41
1501495333.98,23739,22.94,74758.3,11.01,10.57,10.57,0,*40
1501495335.23,23740,22.94,74758.3,10.99,10.57,10.57,0,*4E
1501495336.43,23741,22.94,74758.8,11.01,10.51,10.51,0,*4F
1501495337.66,23742,22.94,74760.0,11.01,10.57,10.57,0,*4C
1501495338.88,23743,22.94,74760.0,11.01,10.51,10.57,0,*4B
1501495340.11,23744,22.94,74758.8,11.01,10.57,10.57,0,*4A
1501495341.35,23745,22.94,74756.5,11.01,10.57,10.57,0,*4B
1501495342.62,23746,22.94,74760.0,11.03,10.65,10.61,0,*4E
1501495343.86,23747,22.94,74758.0,11.01,10.61,10.61,0,*49
1501495345.13,23748,22.94,74756.8,11.03,10.65,10.65,0,*44
1501495346.38,23749,22.94,74756.8,11.03,10.61,10.55,0,*42
1501495347.6,23750,22.94,74758.0,11.03,10.51,10.55,0,*49
1501495348.83,23751,22.94,74760.0,11.03,10.55,10.55,0,*4C
1501495350.1,23752,22.94,74762.0,11.03,10.61,10.61,0,*4F
1501495351.37,23753,22.94,74760.5,11.03,10.65,10.61,0,*4A
1501495352.61,23754,22.94,74760.8,11.03,10.55,10.61,0,*4E
1501495353.88,23755,22.94,74762.5,11.03,10.61,10.65,0,*4C
1501495355.15,23756,22.94,74758.8,11.03,10.65,10.75,0,*4A
1501495356.4,23757,22.94,74758.3,11.03,10.61,10.55,0,*4D
1501495357.67,23758,22.94,74762.8,11.03,10.65,10.65,0,*45
1501495358.94,23759,22.94,74760.5,11.03,10.61,10.65,0,*40
1501495360.16,23760,22.94,74758.0,11.03,10.55,10.51,0,*4A
1501495361.38,23761,22.94,74762.8,11.03,10.51,10.43,0,*4C
1501495362.6,23762,22.94,74756.8,11.01,10.47,10.41,0,*48
1501495363.79,23763,22.94,74756.8,11.01,10.47,10.51,0,*48
1501495364.99,23764,22.94,74760.0,11.01,10.51,10.51,0,*48
1501495366.18,23765,22.94,74758.0,11.01,10.51,10.47,0,*4E
1501495367.42,23766,22.94,74758.8,11.01,10.57,10.61,0,*4F
1501495368.65,23767,22.94,74758.8,11.01,10.57,10.57,0,*4B
1501495369.92,23768,22.94,74756.5,11.03,10.61,10.65,0,*42
1501495371.14,23769,22.94,74756.3,11.05,10.55,10.61,0,*46
1501495372.37,23770,22.94,74758.0,11.03,10.51,10.55,0,*4B
1501495373.56,23771,22.94,74756.3,11.01,10.51,10.51,0,*4C
1501495374.78,23772,22.94,74756.8,11.03,10.55,10.55,0,*4D
1501495376.0,23773,22.94,74756.5,11.03,10.43,10.43,0,*4C
1501495377.22,23774,22.94,74756.3,11.03,10.43,10.43,0,*4B
1501495378.43,23775,22.94,74756.3,11.03,10.43,10.43,0,*4A
1501495379.7,23776,22.94,74760.5,11.03,10.41,10.41,0,*49
1501495380.98,23777,22.94,74760.0,11.03,10.31,10.31,0,*48
1501495382.26,23778,22.94,74756.8,11.03,10.27,10.31,0,*40
1501495383.51,23779,22.94,74756.0,10.99,10.33,10.27,0,*41
1501495384.71,23780,22.94,74758.3,11.01,10.33,10.33,0,*42
1501495385.95,23781,22.94,74758.5,11.01,10.41,10.41,0,*43
1501495387.19,23782,22.94,74758.3,11.01,10.41,10.41,0,*40
1501495388.42,23783,22.94,74762.0,11.01,10.37,10.37,0,*41
1501495389.64,23784,22.94,74762.8,11.01,10.33,10.37,0,*42
1501495390.87,23785,22.94,74756.5,11.01,10.33,10.37,0,*43
1501495392.1,23786,22.94,74760.5,11.01,10.41,10.41,0,*44
1501495393.36,23787,22.94,74758.8,10.99,10.41,10.41,0,*45
1501495394.57,23788,22.94,74760.8,11.01,10.41,10.47,0,*4C
1501495395.79,23789,22.94,74760.0,11.01,10.41,10.47,0,*4D
1501495396.99,23790,22.94,74760.5,11.01,10.51,10.47,0,*44
1501495398.18,23791,22.94,74762.8,11.01,10.51,10.51,0,*42
1501495399.45,23792,22.94,74760.0,11.03,10.61,10.65,0,*47
1501495400.69,23793,22.94,74762.5,11.01,10.57,10.61,0,*45
1501495401.9,23794,22.94,74760.0,11.01,10.51,10.57,0,*41
1501495403.12,23795,22.94,74760.5,11.01,10.61,10.51,0,*45
1501495404.31,23796,22.94,74762.5,11.01,10.47,10.47,0,*45
1501495405.51,23797,22.94,74760.8,11.01,10.51,10.47,0,*43
1501495406.76,23798,22.94,74760.8,10.99,10.57,10.61,0,*4E
1501495408.0,23799,22.94,74762.0,11.01,10.61,10.61,0,*4A
1501495409.24,23800,22.94,74762.5,11.01,10.57,10.61,0,*40
1501495410.48,23801,22.94,74758.0,11.01,10.57,10.57,0,*44
1501495411.71,23802,22.94,74764.3,11.01,10.57,10.61,0,*42
1501495412.95,23803,22.94,74764.3,11.01,10.57,10.61,0,*43
1501495414.19,23804,22.94,74762.5,11.01,10.57,10.57,0,*41
1501495415.38,23805,22.94,74762.8,11.01,10.51,10.51,0,*40
1501495416.57,23806,22.94,74760.5,11.01,10.47,10.51,0,*44
1501495417.81,23807,22.94,74760.8,11.01,10.41,10.41,0,*42
1501495419.01,23808,22.94,74760.0,11.01,10.47,10.51,0,*4A
1501495420.26,23809,22.94,74764.5,10.99,10.57,10.57,0,*4C
1501495421.49,23810,22.94,74762.3,11.01,10.57,10.61,0,*41
1501495422.71,23811,22.94,74762.3,11.01,10.57,10.51,0,*43
1501495423.9,23812,22.94,74762.5,11.01,10.51,10.51,0,*46
1501495425.14,23813,22.94,74760.3,11.01,10.57,10.57,0,*47
1501495426.41,23814,22.94,74762.8,11.03,10.65,10.61,0,*46
1501495427.64,23815,22.94,74760.5,11.01,10.57,10.57,0,*41
1501495428.84,23816,22.94,74762.0,11.01,10.51,10.51,0,*42
1501495430.06,23817,22.94,74760.8,11.03,10.55,10.55,0,*41
1501495431.27,23818,22.94,74762.5,11.01,10.51,10.61,0,*4F
1501495432.51,23819,22.94,74760.8,11.01,10.57,10.57,0,*4D
1501495433.75,23820,22.94,74762.5,11.03,10.55,10.61,0,*42
1501495434.98,23821,22.94,74764.8,11.03,10.43,10.51,0,*47
1501495436.24,23822,22.94,74762.5,11.03,10.41,10.41,0,*47
1501495437.46,23823,22.94,74762.0,11.03,10.43,10.43,0,*46
1501495438.67,23824,22.94,74760.0,11.03,10.43,10.43,0,*41
1501495439.89,23825,22.94,74762.0,11.01,10.41,10.47,0,*44
1501495441.08,23826,22.94,74764.8,11.01,10.51,10.51,0,*41
1501495442.29,23827,22.94,74760.8,10.99,10.51,10.51,0,*40
1501495443.53,23828,22.94,74760.0,11.01,10.41,10.41,0,*4F
1501495444.76,23829,22.94,74762.5,11.01,10.41,10.41,0,*4E
1501495445.98,23830,22.94,74760.0,10.99,10.47,10.47,0,*46
1501495447.17,23831,22.94,74760.0,11.01,10.47,10.47,0,*47
1501495448.4,23832,22.94,74762.3,11.01,10.33,10.37,0,*40
1501495449.62,23833,22.94,74760.5,11.01,10.27,10.33,0,*40
1501495450.86,23834,22.94,74764.3,11.01,10.37,10.41,0,*43
1501495452.05,23835,22.94,74760.5,11.01,10.47,10.51,0,*44
1501495453.29,23836,22.94,74764.3,11.01,10.41,10.41,0,*40
1501495454.53,23837,22.94,74760.8,11.01,10.41,10.41,0,*41
1501495455.77,23838,22.94,74760.8,11.01,10.37,10.41,0,*4F
1501495457.0,23839,22.94,74764.3,10.99,10.33,10.37,0,*4B
1501495458.23,23840,22.94,74766.5,11.01,10.33,10.37,0,*45
1501495459.46,23841,22.94,74762.3,10.99,10.33,10.37,0,*44
1501495460.7,23842,22.94,74762.3,10.99,10.33,10.37,0,*47
1501495461.93,23843,22.94,74762.3,11.01,10.41,10.41,0,*42
1501495463.17,23844,22.94,74764.0,11.01,10.37,10.37,0,*45
1501495464.39,23845,22.94,74766.3,11.01,10.37,10.33,0,*40
1501495465.65,23846,22.94,74764.8,10.99,10.37,10.37,0,*47
1501495466.9,23847,22.94,74764.0,10.99,10.41,10.37,0,*47
1501495468.13,23848,22.94,74764.8,11.01,10.41,10.41,0,*49
1501495469.33,23849,22.94,74762.5,11.01,10.47,10.47,0,*48
1501495470.54,23850,22.94,74760.3,10.99,10.47,10.51,0,*47
1501495471.75,23851,22.94,74762.0,11.01,10.51,10.57,0,*47
1501495472.96,23852,22.94,74760.5,10.99,10.51,10.51,0,*42
1501495474.16,23853,22.94,74760.5,11.01,10.47,10.47,0,*43
1501495475.41,23854,22.94,74762.0,10.99,10.41,10.41,0,*44
1501495476.66,23855,22.94,74762.8,10.99,10.37,10.37,0,*45
1501495477.91,23856,22.94,74762.3,10.99,10.41,10.41,0,*46
1501495479.14,23857,22.94,74762.5,10.99,10.51,10.41,0,*46
1501495480.35,23858,22.94,74760.3,10.99,10.47,10.47,0,*48
1501495481.6,23859,22.94,74758.8,10.99,10.37,10.41,0,*48
1501495482.85,23860,22.94,74758.5,10.99,10.41,10.37,0,*42
1501495484.09,23861,22.94,74758.8,10.99,10.41,10.47,0,*44
1501495485.32,23862,22.88,74758.0,10.99,10.41,10.47,0,*47
1501495486.55,23863,22.94,74758.3,10.99,10.41,10.47,0,*46
1501495487.78,23864,22.94,74758.3,10.99,10.41,10.51,0,*46
1501495488.99,23865,22.94,74756.8,11.01,10.51,10.57,0,*40
1501495490.19,23866,22.94,74758.8,11.01,10.47,10.47,0,*45
1501495491.4,23867,22.94,74756.3,10.99,10.47,10.51,0,*43
1501495492.61,23868,22.94,74760.5,10.99,10.47,10.47,0,*4B
1501495493.86,23869,22.94,74758.3,10.99,10.41,10.41,0,*4A
1501495495.11,23870,22.94,74760.5,10.99,10.41,10.41,0,*42
1501495496.37,23871,22.94,74758.8,10.99,10.37,10.37,0,*43
1501495497.59,23872,22.94,74760.8,11.01,10.33,10.27,0,*45
1501495498.85,23873,22.94,74760.0,10.99,10.37,10.37,0,*41
1501495500.1,23874,22.94,74762.3,10.99,10.37,10.37,0,*46
1501495501.29,23875,22.94,74762.3,10.97,10.33,10.33,0,*49
1501495502.54,23876,22.94,74762.8,10.99,10.41,10.41,0,*44
1501495503.79,23877,22.94,74758.8,10.99,10.41,10.37,0,*44
1501495505.02,23878,22.94,74758.3,10.97,10.37,10.37,0,*44
1501495506.25,23879,22.94,74758.0,10.97,10.37,10.37,0,*45
1501495507.5,23880,22.94,74760.3,10.99,10.37,10.41,0,*4C
1501495508.75,23881,22.94,74762.8,10.99,10.41,10.37,0,*4D
1501495509.97,23882,22.94,74764.3,10.99,10.47,10.47,0,*4F
1501495511.2,23883,22.94,74762.5,10.99,10.41,10.47,0,*48
1501495512.41,23884,22.94,74764.3,10.97,10.37,10.33,0,*43
1501495513.61,23885,22.94,74766.0,10.97,10.47,10.37,0,*41
1501495514.82,23886,22.94,74766.5,10.99,10.51,10.51,0,*4B
1501495516.03,23887,22.94,74766.5,10.99,10.51,10.47,0,*4D
1501495517.24,23888,22.94,74766.0,10.99,10.47,10.51,0,*42
1501495518.47,23889,22.94,74770.5,10.99,10.41,10.47,0,*42
1501495519.7,23890,22.94,74764.3,10.97,10.37,10.37,0,*42
1501495520.88,23891,22.94,74766.5,10.97,10.47,10.55,0,*40
1501495522.08,23892,22.94,74764.5,10.97,10.55,10.57,0,*42
1501495523.29,23893,22.94,74766.3,10.97,10.47,10.57,0,*40
1501495524.52,23894,22.94,74766.5,10.99,10.57,10.51,0,*4E
1501495525.72,23895,22.94,74764.8,11.01,10.47,10.47,0,*49
1501495526.9,23896,22.94,74764.8,10.97,10.47,10.43,0,*40
1501495528.13,23897,22.94,74760.8,10.99,10.51,10.57,0,*4D
1501495529.38,23898,22.94,74766.0,10.99,10.57,10.57,0,*44
1501495530.63,23899,22.94,74766.8,10.99,10.57,10.57,0,*45
1501495531.88,23900,22.94,74766.8,10.99,10.57,10.57,0,*44
1501495533.13,23901,22.94,74766.0,10.99,10.57,10.61,0,*40
1501495534.34,23902,22.94,74764.0,11.01,10.57,10.69,0,*4B
1501495535.59,23903,22.94,74762.5,10.99,10.57,10.57,0,*47
1501495536.83,23904,22.94,74764.0,11.01,10.57,10.57,0,*40
1501495538.06,23905,22.94,74762.5,10.99,10.57,10.51,0,*47
1501495539.31,23906,22.94,74764.3,10.99,10.57,10.61,0,*47
1501495540.56,23907,22.94,74764.0,10.99,10.57,10.57,0,*43
1501495541.77,23908,22.94,74764.3,10.99,10.51,10.51,0,*4C
1501495542.99,23909,22.94,74764.0,10.99,10.57,10.51,0,*4B
1501495544.2,23910,22.94,74764.8,10.99,10.51,10.47,0,*42
1501495545.44,23911,22.94,74766.3,10.99,10.37,10.47,0,*43
1501495546.69,23912,22.94,74762.8,10.99,10.41,10.41,0,*47
1501495547.94,23913,22.94,74764.3,10.99,10.41,10.41,0,*46
1501495549.15,23914,22.94,74766.5,10.99,10.47,10.51,0,*46
1501495550.34,23915,22.94,74766.5,11.01,10.51,10.47,0,*47
1501495551.55,23916,22.94,74766.0,10.99,10.47,10.51,0,*44
1501495552.78,23917,22.94,74766.0,10.99,10.41,10.47,0,*44
1501495554.02,23918,22.94,74764.8,10.99,10.41,10.47,0,*4B
1501495555.25,23919,22.94,74760.8,10.99,10.41,10.51,0,*4D
1501495556.5,23920,22.94,74766.0,10.99,10.41,10.41,0,*46
1501495557.74,23921,22.94,74764.3,10.99,10.41,10.37,0,*46
1501495559.0,23922,22.88,74762.5,10.99,10.37,10.41,0,*45
1501495560.25,23923,22.94,74762.0,10.99,10.37,10.37,0,*45
1501495561.49,23924,22.94,74766.3,11.01,10.37,10.37,0,*42
1501495562.74,23925,22.94,74766.8,10.99,10.41,10.41,0,*43
1501495563.99,23926,22.94,74766.8,10.99,10.37,10.37,0,*40
1501495565.25,23927,22.94,74766.8,10.99,10.37,10.37,0,*41
1501495566.49,23928,22.94,74766.5,10.99,10.41,10.37,0,*4F
1501495567.71,23929,22.94,74764.3,10.99,10.47,10.47,0,*4F
1501495568.93,23930,22.94,74766.0,10.99,10.57,10.51,0,*41
1501495570.19,23931,22.94,74762.0,10.99,10.57,10.57,0,*46
1501495571.44,23932,22.94,74766.0,10.99,10.57,10.57,0,*45
1501495572.62,23933,22.94,74762.3,10.97,10.47,10.47,0,*4A
1501495573.88,23934,22.94,74766.0,10.99,10.37,10.37,0,*43
1501495575.13,23935,22.94,74764.3,10.99,10.37,10.41,0,*43
1501495576.38,23936,22.94,74762.5,10.99,10.37,10.37,0,*41
1501495577.62,23937,22.94,74766.5,10.97,10.23,10.23,0,*4E
1501495578.86,23938,22.94,74764.0,10.97,10.19,10.19,0,*41
1501495580.11,23939,22.94,74764.0,10.97,10.31,10.31,0,*40
1501495581.3,23940,22.94,74762.3,10.97,10.33,10.33,0,*4E
1501495582.55,23941,22.94,74766.5,10.95,10.33,10.41,0,*48
1501495583.73,23942,22.94,74766.8,10.97,10.43,10.47,0,*48
1501495584.94,23943,22.94,74766.3,10.97,10.37,10.43,0,*4E
1501495586.15,23944,22.94,74764.8,10.97,10.33,10.37,0,*4E
1501495587.4,23945,22.94,74766.0,10.99,10.37,10.37,0,*45
1501495588.59,23946,22.94,74764.3,10.97,10.33,10.33,0,*48
1501495589.82,23947,22.94,74764.8,10.97,10.37,10.37,0,*49
1501495591.08,23948,22.94,74766.0,10.95,10.33,10.31,0,*46
1501495592.31,23949,22.94,74766.5,10.99,10.41,10.47,0,*4F
1501495593.49,23950,22.94,74766.0,10.97,10.43,10.47,0,*4B
1501495594.67,23951,22.94,74766.5,10.97,10.43,10.47,0,*4A
1501495595.91,23952,22.94,74764.0,10.99,10.47,10.57,0,*42
1501495597.09,23953,22.94,74764.0,10.97,10.43,10.47,0,*48
1501495598.27,23954,22.94,74764.8,10.97,10.43,10.43,0,*4B
1501495599.45,23955,22.94,74764.3,10.97,10.47,10.47,0,*4A
1501495600.64,23956,22.94,74766.3,10.97,10.47,10.47,0,*49
1501495601.9,23957,22.94,74766.5,10.95,10.41,10.41,0,*4A
1501495603.1,23958,22.94,74766.0,10.97,10.37,10.43,0,*44
1501495604.34,23959,22.94,74764.3,10.99,10.41,10.47,0,*4E
1501495605.52,23960,22.94,74766.5,10.97,10.47,10.43,0,*48
1501495606.69,23961,22.94,74760.8,10.97,10.43,10.43,0,*4D
1501495607.88,23962,22.94,74764.3,10.97,10.33,10.43,0,*49
1501495609.13,23963,22.94,74760.8,10.99,10.37,10.37,0,*41
1501495610.39,23964,22.94,74762.0,10.99,10.37,10.41,0,*47
1501495611.62,23965,22.94,74764.0,10.99,10.37,10.33,0,*43
1501495612.87,23966,22.94,74766.5,10.97,10.23,10.23,0,*4A
1501495614.14,23967,22.94,74762.3,10.95,10.19,10.19,0,*49
1501495615.38,23968,22.94,74764.0,10.97,10.23,10.23,0,*44
1501495616.64,23969,22.94,74766.0,10.95,10.27,10.27,0,*47
1501495617.91,23970,22.94,74768.8,10.95,10.19,10.27,0,*42
1501495619.15,23971,22.94,74768.5,10.97,10.31,10.31,0,*4C
1501495620.42,23972,22.94,74768.8,10.95,10.19,10.19,0,*4D
1501495621.65,23973,22.94,74770.0,10.95,10.09,10.05,0,*40
1501495622.9,23974,22.94,74766.8,10.95,9.89,9.85,0,*47
1501495624.16,23975,22.94,74766.0,10.95,9.89,9.85,0,*46
1501495625.38,23976,22.94,74762.8,10.93,10.23,10.13,0,*4C
1501495626.62,23977,22.94,74766.5,10.93,10.23,10.27,0,*4A
1501495627.81,23978,22.94,74766.5,10.93,10.13,10.05,0,*46
1501495629.03,23979,22.94,74766.3,10.93,10.17,10.23,0,*47
1501495630.3,23980,22.94,74760.5,10.95,10.27,10.27,0,*40
1501495631.55,23981,22.94,74760.3,10.93,10.31,10.31,0,*47
1501495632.79,23982,22.94,74766.3,10.93,10.27,10.31,0,*43
1501495634.02,23983,22.94,74762.5,10.93,10.27,10.27,0,*45
1501495635.27,23984,22.94,74762.3,10.93,10.31,10.31,0,*42
1501495636.5,23985,22.94,74764.3,10.93,10.27,10.27,0,*43
1501495637.77,23986,22.94,74760.5,10.95,10.31,10.27,0,*41
1501495639.02,23987,22.94,74764.0,10.97,10.31,10.31,0,*45
1501495640.29,23988,22.94,74766.3,10.95,10.27,10.27,0,*48
1501495641.53,23989,22.94,74764.0,10.95,10.31,10.33,0,*4B
1501495642.79,23990,22.94,74762.0,10.95,10.41,10.41,0,*41
1501495644.06,23991,22.94,74762.3,10.95,10.31,10.41,0,*47
1501495645.29,23992,22.94,74764.0,10.97,10.37,10.37,0,*41
1501495646.52,23993,22.94,74764.5,10.93,10.27,10.27,0,*44
1501495647.77,23994,22.94,74766.0,10.93,10.31,10.31,0,*43
1501495649.0,23995,22.94,74764.8,10.93,10.31,10.37,0,*44
1501495650.25,23996,22.94,74764.0,10.93,10.31,10.31,0,*41
1501495651.49,23997,22.94,74766.3,10.93,10.27,10.31,0,*47
1501495652.73,23998,22.94,74764.5,10.93,10.31,10.27,0,*48
1501495653.95,23999,22.94,74766.8,10.93,10.47,10.31,0,*4F
1501495655.18,24000,22.94,74764.3,10.93,10.41,10.41,0,*40
1501495656.38,24001,22.94,74766.0,10.95,10.43,10.43,0,*47
1501495657.62,24002,22.94,74764.3,10.95,10.41,10.43,0,*46
1501495658.85,24003,22.94,74766.8,10.95,10.43,10.41,0,*47
1501495660.06,24004,22.94,74770.3,10.95,10.43,10.43,0,*42
1501495661.27,24005,22.94,74766.3,10.95,10.55,10.51,0,*47
1501495662.48,24006,22.94,74766.8,10.95,10.55,10.55,0,*40
1501495663.69,24007,22.94,74766.8,10.95,10.43,10.55,0,*46
1501495664.91,24008,22.94,74764.5,10.95,10.55,10.55,0,*4E
1501495666.12,24009,22.94,74764.5,10.95,10.51,10.51,0,*4F
1501495667.3,24010,22.94,74766.3,10.97,10.55,10.55,0,*45
1501495668.51,24011,22.94,74766.0,10.97,10.57,10.55,0,*46
1501495669.72,24012,22.94,74766.5,10.95,10.51,10.51,0,*45
1501495670.95,24013,22.94,74762.3,10.95,10.51,10.57,0,*42
1501495672.16,24014,22.94,74764.3,10.95,10.51,10.51,0,*43
1501495673.39,24015,22.94,74764.5,10.97,10.57,10.57,0,*40
1501495674.59,24016,22.88,74762.3,10.97,10.41,10.43,0,*41
1501495675.82,24017,22.94,74766.0,10.97,10.37,10.37,0,*42
1501495677.06,24018,22.88,74762.5,10.95,10.33,10.41,0,*4A
1501495678.27,24019,22.94,74764.0,10.95,10.43,10.43,0,*4E
1501495679.5,24020,22.88,74764.8,10.95,10.43,10.41,0,*46
1501495680.69,24021,22.88,74764.3,10.97,10.43,10.47,0,*43
1501495681.89,24022,22.94,74764.8,10.95,10.43,10.43,0,*46
1501495683.08,24023,22.94,74766.3,10.97,10.47,10.47,0,*45
1501495684.26,24024,22.94,74764.8,10.97,10.55,10.47,0,*41
1501495685.48,24025,22.88,74762.5,10.95,10.43,10.51,0,*42
1501495686.66,24026,22.94,74764.3,10.97,10.43,10.47,0,*44
1501495687.84,24027,22.94,74764.5,10.97,10.43,10.47,0,*45
1501495689.03,24028,22.94,74766.8,10.97,10.47,10.47,0,*4E
1501495690.22,24029,22.94,74768.3,10.97,10.55,10.47,0,*4C
1501495691.44,24030,22.94,74768.8,10.97,10.57,10.65,0,*46
1501495692.62,24031,22.94,74768.3,10.97,10.43,10.43,0,*46
1501495693.87,24032,22.94,74770.5,10.95,10.33,10.31,0,*45
1501495695.08,24033,22.88,74764.3,10.97,10.33,10.37,0,*40
1501495696.29,24034,22.88,74764.8,10.97,10.37,10.43,0,*40
1501495697.48,24035,22.94,74770.8,10.97,10.47,10.47,0,*42
1501495698.68,24036,22.94,74770.0,10.97,10.47,10.57,0,*40
1501495699.91,24037,22.94,74766.8,10.99,10.51,10.57,0,*48
1501495701.09,24038,22.94,74764.3,10.97,10.55,10.47,0,*4C
1501495702.27,24039,22.94,74766.0,10.97,10.43,10.43,0,*4E
1501495703.45,24040,22.88,74764.3,10.97,10.47,10.43,0,*44
1501495704.64,24041,22.94,74766.8,10.97,10.43,10.47,0,*45
1501495705.82,24042,22.88,74766.3,10.97,10.47,10.43,0,*46
1501495706.99,24043,22.94,74768.5,10.97,10.43,10.43,0,*43
1501495708.17,24044,22.94,74766.8,10.97,10.43,10.43,0,*44